User: anonymous   Login
Location: Boca do Mato
(22.9085°S, 43.2930°W)
Time: 14:03:06
(UTC+00:00)
Language:

Delta 168 - Orbit

View from above orbital plane
View from above orbital plane
View from above satellite
View from above satellite

Ground track
Ground track

The orbit data is extracted from the following two-line orbital elements,

1 14051U 83041B   20274.88203186  .00001029  00000-0  72458-4 0  9990
2 14051  25.3392  97.3926 1089216 254.4824  93.2969 13.10291502736063
Epoch (UTC): 30 September 2020 21:10:07
Eccentricity: 0.1089216
inclination: 25.3392°
perigee height: 394 km
apogee height: 2050 km
right ascension of ascending node: 97.3926°
argument of perigee: 254.4824°
revolutions per day: 13.10291502
mean anomaly at epoch: 93.2969°
orbit number at epoch: 73606

The dashed part of the orbit path shows where the satellite is in the earth's shadow,  

DLR